METOP-SGA1

Last updated on Tue Sep 22 2026 00:02:54 GMT+0000 (Coordinated Universal Time)

1 65159U 25172A 26264.39244063 .00000002 00000+0 20919-4 0 9990 2 65159 98.7068 322.3666 0000856 96.8395 263.2880 14.21503589 57451
UTC large
Height (km)
Speed (km/s)
/
Latitude / Longitude
Inclination (degrees)
Orbital Period (minutes)
Azimuth
Elevation
Range (km)
Doppler Factor

Next 0 passes for location: London (51.5072 / 0.1276)

No passes found over London.
METOP-SGA1